Regional Weather Roundup
Issued by NWS Cleveland, OH

Home | Current Version | Previous Version | Text Only | Print | Product List | Glossary Off
Versions: 1 2 3 4 5 6 7 8 9 10 11 12 13 14 15 16 17 18 19 20 21 22 23 24 25 26 27 28 29 30 31 32 33 34 35 36 37 38 39 40 41 42 43 44 45 46 47 48 49 50

000
ASUS41 KCLE 250010
RWRCLE
OHIO REGIONAL WEATHER ROUNDUP
NATIONAL WEATHER SERVICE WILMINGTON, OH
800 PM EDT TUE MAY 24 2016

NOTE: "FAIR" INDICATES FEW OR NO CLOUDS BELOW 12,000 FEET WITH NO
SIGNIFICANT WEATHER AND/OR OBSTRUCTIONS TO VISIBILITY.

OHZ001>008-015>018-024>027-034-035-043-044-250100-
   NORTHWEST OHIO

CITY           SKY/WX    TMP DP  RH WIND       PRES   REMARKS
DEFIANCE       FAIR      80  45  28 SW6       30.02R
FINDLAY        FAIR      79  37  22 SW8       30.03R
TOLEDO EXPRESS FAIR      81  46  29 W7        30.01R
TOLEDO EXEC    FAIR      81  45  28 SW8       30.02R
LIMA           FAIR      78  44  29 W6        30.04R
$$

OHZ009>014-019>023-028>033-038-089-250100-
   NORTHEAST OHIO

CITY           SKY/WX    TMP DP  RH WIND       PRES   REMARKS
CLE-HOPKINS    FAIR      80  39  23 N3        30.05R
CLE-LAKEFRONT  FAIR      77  44  30 CALM      30.02R
CUY CO. ARPT   CLEAR     81  41  24 W5        30.04S
LORAIN-ELYRIA  FAIR      76  43  30 W5        30.04R
ASHTABULA      FAIR      70  39  32 CALM      30.05R
AKRON-CANTON   FAIR      76  46  34 W5        30.06R
WOOSTER        FAIR      74  48  39 W5        30.06R
MANSFIELD      FAIR      76  45  33 SW8       30.07R
YOUNGSTOWN     MOCLDY    73  45  36 NW9       30.05R
$$

OHZ042-051>053-060>062-070>072-077>081-250100-
  SOUTHWEST OHIO

CITY           SKY/WX    TMP DP  RH WIND       PRES   REMARKS
CINC-COVINGTON FAIR      76  50  40 S6        30.08R
CINC-LUNKEN    FAIR      74  53  48 S8        30.07R
HAMILTON       FAIR      79  51  37 SW3       30.07R
DAYTON         FAIR      76  47  35 S8        30.08R
WRIGHT-PAT AFB NOT AVBL
DAYTON GENERAL FAIR      77  42  28 SW6       30.07R
WILMINGTON     FAIR      76  48  37 W9        30.08R
$$

OHZ036-037-039>041-045>050-054>059-063>069-073>076-082>088-250100-
  CENTRAL AND SOUTHEAST OHIO

CITY           SKY/WX    TMP DP  RH WIND       PRES   REMARKS
COLUMBUS       FAIR      78  46  32 SW8       30.06R
OSU AIRPORT    FAIR      77  48  35 SW7       30.06R
BOLTON FIELD   FAIR      75  51  43 SW6       30.07R
RICKENBACK AFB FAIR      76  51  41 SW8       30.06R
NEWARK         FAIR      78  50  37 SW6       30.06R
MARION         FAIR      78  42  27 W8        30.06R
LANCASTER      FAIR      76  50  40 SW8       30.08R
ZANESVILLE     FAIR      78  50  37 SW3       30.07R
NEW PHILLY     FAIR      79  48  33 SW5       30.06R
$$




USA.gov is the U.S. government's official web portal to all federal, state and local government web resources and services.